This is the latest recevied weather packets stored in our database for station/object KM4KMS. If no packets are shown the sender has not sent any weather packets the latest 10 day(s).
| Time | Temp. | Humidity | Pressure | Rain* | Wind** | Luminosity | Snow |
|---|---|---|---|---|---|---|---|
| 1777940077 | 22.22° C | 57% | 1005.5 hPa | 0 mm | - | 11 W/m² | - |
| 1777939774 | 22.22° C | 57% | 1005.5 hPa | 0 mm | - | 14 W/m² | - |
| 1777939472 | 22.22° C | 57% | 1005.4 hPa | 0 mm | - | 16 W/m² | - |
| 1777939168 | 22.22° C | 57% | 1005.6 hPa | 0 mm | - | 18 W/m² | - |
| 1777938866 | 22.78° C | 57% | 1005.7 hPa | 0 mm | - | 21 W/m² | - |
| 1777938561 | 22.78° C | 57% | 1005.8 hPa | 0 mm | - | 23 W/m² | - |
| 1777938259 | 22.78° C | 55% | 1005.6 hPa | 0 mm | - | 25 W/m² | - |
| 1777937955 | 22.78° C | 55% | 1005.9 hPa | 0 mm | - | 29 W/m² | - |
| 1777937651 | 23.33° C | 55% | 1005.8 hPa | 0 mm | - | 35 W/m² | - |
| 1777937348 | 23.33° C | 55% | 1006.1 hPa | 0 mm | - | 40 W/m² | - |
| 1777937045 | 23.33° C | 55% | 1006.3 hPa | 0 mm | - | 54 W/m² | - |
| 1777936742 | 23.33° C | 55% | 1006.4 hPa | 0 mm | - | 72 W/m² | - |
| 1777936438 | 23.89° C | 54% | 1006.4 hPa | 0 mm | - | 73 W/m² | - |
| 1777936135 | 23.89° C | 51% | 1006.6 hPa | 0 mm | - | 88 W/m² | - |
| 1777935832 | 23.89° C | 51% | 1006.6 hPa | 0 mm | - | 113 W/m² | - |
| 1777935531 | 24.44° C | 50% | 1006.6 hPa | 0 mm | - | 133 W/m² | - |
| 1777935227 | 24.44° C | 51% | 1006.7 hPa | 0 mm | - | 128 W/m² | - |
| 1777934925 | 24.44° C | 49% | 1006.8 hPa | 0 mm | - | 145 W/m² | - |
| 1777934621 | 24.44° C | 49% | 1006.9 hPa | 0 mm | - | 161 W/m² | - |
| 1777934318 | 24.44° C | 51% | 1006.8 hPa | 0 mm | - | 223 W/m² | - |
| 1777934013 | 25° C | 51% | 1006.7 hPa | 0 mm | - | 93 W/m² | - |
| 1777933710 | 25° C | 51% | 1006.8 hPa | 0 mm | - | 257 W/m² | - |
| 1777933407 | 25° C | 52% | 1007 hPa | 0 mm | - | 274 W/m² | - |
| 1777933106 | 25° C | 51% | 1006.9 hPa | 0 mm | - | 259 W/m² | - |
| 1777932802 | 25° C | 52% | 1006.9 hPa | 0 mm | - | 201 W/m² | - |
* Rain latest hour (hover to see other rain measurements)
** Current wind speed in m/s (hover to see current wind gust speed)